This demonstration page uses our WeatherBlox Daily Observations layout. Learn more.

Left ArrowRight Arrow

39.01783, -85.05884

Hourly Observations for December 30, 2016

Temp ( °F °C ) Dew Point ( °F °C ) Humidity (%) Winds ( mph kmh ) Pressure ( in mb ) Visibility ( mi km ) Precip ( " mm )
12:52 am 00:52 Cloudy 34 1.1 24 -4.4 67 67 W 17 28 29.99 1016 10 16 N/A
1:52 am 01:52 Cloudy 33 0.6 24 -4.4 70 70 WNW 20 31 29.99 1016 9 14 N/A
2:52 am 02:52 Cloudy 33 0.6 21 -6.1 61 61 WNW 21 33 30.01 1016 10 16 N/A
3:52 am 03:52 Cloudy 33 0.6 22 -5.6 64 64 W 13 20 30.01 1016 10 16 N/A
4:52 am 04:52 Cloudy 33 0.6 23 -5 66 66 W 15 24 30.00 1016 10 16 N/A
5:48 am 05:48 Cloudy 34 1 25 -4 70 70 WNW 21 33 30.03 1017 7 11 N/A
5:52 am 05:52 Cloudy 33 0.6 24 -4.4 70 70 WNW 21 33 30.01 1016 6 10 N/A
6:23 am 06:23 Cloudy 32 undefined 25 -3.9 75 75 NNW 12 19 30.06 1018 3 5 0.01 0.25
6:33 am 06:33 Cloudy 31 -0.6 25 -3.9 79 79 WNW 10 17 30.06 1018 2 3 0.01 0.25
6:52 am 06:52 Cloudy with Mist and Fog 30 -1.1 27 -2.8 88 88 W 15 24 30.04 1017 2 3 0.02 0.51
7:10 am 07:10 Cloudy with Mist and Fog 30 -1 27 -3 86 86 WNW 13 20 30.09 1019 5 8 N/A
7:27 am 07:27 Cloudy 31 -0.6 27 -2.8 85 85 WNW 10 17 30.09 1019 5 8 N/A
7:39 am 07:39 Cloudy with Light Snow 31 -0.6 27 -2.8 85 85 NNW 13 20 30.12 1020 4 6 N/A
7:52 am 07:52 Cloudy with Light Snow 29 -1.7 26 -3.3 89 89 NW 16 26 30.08 1019 4 6 N/A
8:52 am 08:52 Mostly Cloudy 30 -1.1 22 -5.6 72 72 WNW 16 26 30.10 1019 10 16 N/A
9:52 am 09:52 Mostly Cloudy 31 -0.6 21 -6.1 67 67 WNW 15 24 30.13 1020 10 16 N/A
10:52 am 10:52 Mostly Cloudy 31 -0.6 22 -5.6 69 69 WNW 17 28 30.16 1021 10 16 N/A
11:52 am 11:52 Mostly Cloudy 34 1.1 21 -6.1 59 59 WNW 15 24 30.15 1021 10 16 N/A
12:52 pm 12:52 Mostly Sunny 35 1.7 21 -6.1 57 57 W 16 26 30.12 1020 10 16 N/A
1:52 pm 13:52 Mostly Sunny 36 2.2 20 -6.7 52 52 W 16 26 30.11 1020 10 16 N/A
2:52 pm 14:52 Mostly Sunny 37 2.8 17 -8.3 44 44 W 16 26 30.10 1019 10 16 N/A
3:52 pm 15:52 Mostly Sunny 38 3.3 18 -7.8 44 44 WSW 12 19 30.11 1020 10 16 N/A
4:52 pm 16:52 Partly Cloudy 36 2.2 16 -8.9 44 44 WSW 10 17 30.10 1019 10 16 N/A
5:52 pm 17:52 Mostly Cloudy 34 1.1 16 -8.9 48 48 SW 7 11 30.10 1019 10 16 N/A
6:52 pm 18:52 Partly Cloudy 31 -0.6 17 -8.3 56 56 S 5 7 30.09 1019 10 16 N/A
7:52 pm 19:52 Mostly Cloudy 30 -1.1 18 -7.8 61 61 S 5 7 30.09 1019 10 16 N/A
8:52 pm 20:52 Cloudy 30 -1.1 18 -7.8 61 61 SSW 8 13 30.09 1019 10 16 N/A
9:52 pm 21:52 Cloudy 32 undefined 18 -7.8 56 56 S 10 17 30.04 1017 10 16 N/A
10:52 pm 22:52 Cloudy 32 undefined 19 -7.2 59 59 S 12 19 30.03 1017 10 16 N/A
11:52 pm 23:52 Mostly Cloudy 32 undefined 19 -7.2 59 59 S 10 17 30.01 1016 10 16 N/A

Powered by AerisWeather